Terminal Aerodrome Forecast
Issued by NWS

Home | Current Version | Previous Version | Graphics & Text | Print | Product List | Glossary On
Versions: 1 2 3 4 5 6 7 8 9 10 11 12 13 14 15 16 17 18 19 20
000
FTUS43 KABR 311727
TAFPIR
TAF
KPIR 311727Z 3118/0118 34014G20KT P6SM VCSH SCT080 BKN120
     FM312100 34012KT P6SM SCT080 BKN120
     FM010100 VRB05KT P6SM SCT150
     FM011600 14007KT P6SM SKC=

USA.gov is the U.S. government's official web portal to all federal, state and local government web resources and services.